• In Austria
  • List of Countries
  • For 7 days
  • Water Temperature
  • Satellite Maps
  • Weather Map
  • News
  • Weather Widgets
  • user-avatar
    Login

    Hourly Weather Priluk

    Today, 18 July, Wednesday

    Time Temperature Precipitation Wind Pressure Humidity
    00:00 +20°C° 0 mm 3 mps 749 mmHg 79%
    01:00 +20°C° 0 mm 3 mps 749 mmHg 80%
    02:00 +19°C° 0 mm 2 mps 749 mmHg 86%
    03:00 +19°C° 0 mm 3 mps 749 mmHg 86%
    04:00 +19°C° 0 mm 3 mps 749 mmHg 85%
    05:00 +19°C° 0 mm 3 mps 749 mmHg 85%
    06:00 +21°C° 0 mm 3 mps 749 mmHg 79%
    07:00 +22°C° 0 mm 4 mps 749 mmHg 74%
    08:00 +23°C° 0 mm 4 mps 749 mmHg 66%
    09:00 +26°C° 0 mm 4 mps 749 mmHg 62%
    10:00 +27°C° 0 mm 5 mps 749 mmHg 57%
    11:00 +28°C° 0 mm 5 mps 748 mmHg 52%
    12:00 +28°C° 0.8 mm 5 mps 748 mmHg 58%
    13:00 +27°C° 0.8 mm 5 mps 748 mmHg 63%
    14:00 +27°C° 0.8 mm 4 mps 748 mmHg 68%
    15:00 +26°C° 0.8 mm 4 mps 748 mmHg 71%
    16:00 +25°C° 0.8 mm 4 mps 748 mmHg 74%
    17:00 +25°C° 0.8 mm 4 mps 748 mmHg 77%
    18:00 +23°C° 1.1 mm 4 mps 748 mmHg 81%
    19:00 +22°C° 1.1 mm 3 mps 748 mmHg 85%
    20:00 +21°C° 1.1 mm 3 mps 748 mmHg 90%
    21:00 +20°C° 2.5 mm 3 mps 748 mmHg 92%
    22:00 +20°C° 2.5 mm 3 mps 748 mmHg 94%
    23:00 +19°C° 2.5 mm 3 mps 748 mmHg 96%

    Tomorrow, 19 July, Thursday

    Time Temperature Precipitation Wind Pressure Humidity
    00:00 +19°C° 0.9 mm 3 mps 748 mmHg 96%
    01:00 +19°C° 0.9 mm 3 mps 748 mmHg 96%
    02:00 +19°C° 0.9 mm 3 mps 748 mmHg 97%
    03:00 +19°C° 1.3 mm 3 mps 748 mmHg 97%
    04:00 +19°C° 1.3 mm 3 mps 747 mmHg 97%
    05:00 +19°C° 1.3 mm 3 mps 747 mmHg 97%
    06:00 +19°C° 0.4 mm 3 mps 747 mmHg 96%
    07:00 +20°C° 0.4 mm 4 mps 747 mmHg 95%
    08:00 +20°C° 0.4 mm 4 mps 748 mmHg 94%
    09:00 +21°C° 0.1 mm 4 mps 748 mmHg 91%
    10:00 +21°C° 0.1 mm 4 mps 748 mmHg 88%
    11:00 +22°C° 0.1 mm 4 mps 748 mmHg 85%
    12:00 +22°C° 0.7 mm 4 mps 748 mmHg 85%
    13:00 +23°C° 0.7 mm 4 mps 747 mmHg 86%
    14:00 +23°C° 0.7 mm 4 mps 747 mmHg 86%
    15:00 +23°C° 0.8 mm 4 mps 747 mmHg 85%
    16:00 +23°C° 0.8 mm 4 mps 747 mmHg 84%
    17:00 +23°C° 0.8 mm 4 mps 747 mmHg 83%
    18:00 +22°C° 0.1 mm 3 mps 747 mmHg 86%
    19:00 +22°C° 0.1 mm 3 mps 747 mmHg 88%
    20:00 +21°C° 0.1 mm 2 mps 747 mmHg 90%
    21:00 +20°C° 0 mm 2 mps 747 mmHg 92%
    22:00 +20°C° 0 mm 2 mps 747 mmHg 94%
    23:00 +19°C° 0 mm 3 mps 747 mmHg 95%

    Day after tomorrow, 20 July, Friday

    Time Temperature Precipitation Wind Pressure Humidity
    00:00 +19°C° 0 mm 3 mps 747 mmHg 96%
    01:00 +19°C° 0 mm 3 mps 747 mmHg 96%
    02:00 +18°C° 0 mm 3 mps 747 mmHg 97%
    03:00 +19°C° 0.1 mm 3 mps 747 mmHg 96%
    04:00 +19°C° 0.1 mm 3 mps 747 mmHg 96%
    05:00 +19°C° 0.1 mm 3 mps 746 mmHg 95%
    06:00 +19°C° 0.1 mm 3 mps 746 mmHg 94%
    07:00 +20°C° 0.1 mm 3 mps 746 mmHg 93%
    08:00 +20°C° 0.1 mm 3 mps 746 mmHg 92%
    09:00 +21°C° 0.1 mm 3 mps 747 mmHg 90%
    10:00 +21°C° 0.1 mm 3 mps 747 mmHg 88%
    11:00 +22°C° 0.1 mm 3 mps 747 mmHg 86%
    12:00 +22°C° 0.3 mm 3 mps 747 mmHg 85%
    13:00 +24°C° 0.3 mm 3 mps 746 mmHg 83%
    14:00 +25°C° 0.3 mm 3 mps 746 mmHg 82%
    15:00 +24°C° 0.5 mm 3 mps 746 mmHg 83%
    16:00 +24°C° 0.5 mm 3 mps 746 mmHg 85%
    17:00 +24°C° 0.5 mm 3 mps 746 mmHg 86%
    18:00 +23°C° 0.2 mm 2 mps 746 mmHg 89%
    19:00 +21°C° 0.2 mm 2 mps 746 mmHg 91%
    20:00 +20°C° 0.2 mm 2 mps 746 mmHg 94%
    21:00 +20°C° 0 mm 2 mps 746 mmHg 95%
    22:00 +20°C° 0 mm 1 mps 746 mmHg 96%
    23:00 +20°C° 0 mm 1 mps 746 mmHg 98%

    21 July, Saturday

    Time Temperature Precipitation Wind Pressure Humidity
    00:00 +19°C° 0 mm 1 mps 746 mmHg 98%
    01:00 +19°C° 0 mm 1 mps 746 mmHg 98%
    02:00 +19°C° 0 mm 1 mps 746 mmHg 98%
    03:00 +19°C° 0 mm 1 mps 746 mmHg 98%
    04:00 +19°C° 0 mm 1 mps 746 mmHg 98%
    05:00 +19°C° 0 mm 1 mps 746 mmHg 98%
    06:00 +20°C° 0 mm 1 mps 746 mmHg 97%
    07:00 +20°C° 0 mm 1 mps 746 mmHg 96%
    08:00 +21°C° 0 mm 1 mps 746 mmHg 95%
    09:00 +22°C° 0.1 mm 1 mps 746 mmHg 90%
    10:00 +24°C° 0.1 mm 1 mps 746 mmHg 85%
    11:00 +25°C° 0.1 mm 1 mps 746 mmHg 81%
    12:00 +26°C° 0 mm 1 mps 745 mmHg 76%
    13:00 +27°C° 0 mm 1 mps 745 mmHg 71%
    14:00 +28°C° 0 mm 1 mps 745 mmHg 66%
    15:00 +28°C° 0.4 mm 1 mps 745 mmHg 69%
    16:00 +28°C° 0.4 mm 1 mps 745 mmHg 72%
    17:00 +28°C° 0.4 mm 1 mps 745 mmHg 75%
    18:00 +26°C° 0.5 mm 1 mps 745 mmHg 81%
    19:00 +25°C° 0.5 mm 1 mps 745 mmHg 86%
    20:00 +23°C° 0.5 mm 1 mps 745 mmHg 91%
    21:00 +23°C° 0.2 mm 1 mps 745 mmHg 92%
    22:00 +22°C° 0.2 mm 1 mps 745 mmHg 94%
    23:00 +21°C° 0.2 mm 1 mps 745 mmHg 96%

    22 July, Sunday

    Time Temperature Precipitation Wind Pressure Humidity
    00:00 +21°C° 0.6 mm 1 mps 745 mmHg 96%
    01:00 +21°C° 0.6 mm 1 mps 745 mmHg 96%
    02:00 +21°C° 0.6 mm 1 mps 745 mmHg 97%
    03:00 +21°C° 0.2 mm 1 mps 745 mmHg 97%
    04:00 +21°C° 0.2 mm 1 mps 745 mmHg 97%
    05:00 +21°C° 0.2 mm 1 mps 745 mmHg 98%
    06:00 +22°C° 0.1 mm 1 mps 745 mmHg 94%
    07:00 +23°C° 0.1 mm 1 mps 745 mmHg 91%
    08:00 +25°C° 0.1 mm 1 mps 745 mmHg 88%
    09:00 +25°C° 1 mm 1 mps 745 mmHg 85%
    10:00 +26°C° 1 mm 1 mps 745 mmHg 83%
    11:00 +27°C° 1 mm 2 mps 745 mmHg 81%
    12:00 +27°C° 0.4 mm 2 mps 745 mmHg 77%
    13:00 +28°C° 0.4 mm 2 mps 745 mmHg 73%
    14:00 +28°C° 0.4 mm 2 mps 745 mmHg 68%
    15:00 +28°C° 0.7 mm 2 mps 745 mmHg 72%
    16:00 +28°C° 0.7 mm 2 mps 745 mmHg 76%
    17:00 +27°C° 0.7 mm 2 mps 745 mmHg 80%
    18:00 +26°C° 0.7 mm 2 mps 745 mmHg 85%
    19:00 +24°C° 0.7 mm 2 mps 746 mmHg 89%
    20:00 +23°C° 0.7 mm 2 mps 746 mmHg 94%
    21:00 +21°C° 0.1 mm 2 mps 746 mmHg 95%
    22:00 +21°C° 0.1 mm 2 mps 746 mmHg 96%
    23:00 +20°C° 0.1 mm 2 mps 746 mmHg 97%

    23 July, Monday

    Time Temperature Precipitation Wind Pressure Humidity
    00:00 +20°C° 0.2 mm 2 mps 746 mmHg 97%
    01:00 +20°C° 0.2 mm 2 mps 746 mmHg 98%
    02:00 +20°C° 0.2 mm 2 mps 746 mmHg 98%
    03:00 +20°C° 0.2 mm 2 mps 747 mmHg 98%
    04:00 +20°C° 0.2 mm 3 mps 747 mmHg 98%
    05:00 +20°C° 0.2 mm 3 mps 747 mmHg 98%
    06:00 +20°C° 0.1 mm 3 mps 747 mmHg 96%
    07:00 +21°C° 0.1 mm 3 mps 747 mmHg 94%
    08:00 +21°C° 0.1 mm 3 mps 747 mmHg 93%
    09:00 +22°C° 0.2 mm 3 mps 747 mmHg 89%
    10:00 +24°C° 0.2 mm 3 mps 747 mmHg 86%
    11:00 +24°C° 0.2 mm 3 mps 747 mmHg 83%
    12:00 +25°C° 0.5 mm 3 mps 747 mmHg 83%
    13:00 +25°C° 0.5 mm 3 mps 747 mmHg 84%
    14:00 +26°C° 0.5 mm 3 mps 747 mmHg 85%
    15:00 +25°C° 1 mm 3 mps 747 mmHg 87%
    16:00 +25°C° 1 mm 3 mps 747 mmHg 89%
    17:00 +24°C° 1 mm 3 mps 747 mmHg 92%
    18:00 +22°C° 0.6 mm 3 mps 747 mmHg 93%
    19:00 +22°C° 0.6 mm 3 mps 748 mmHg 95%
    20:00 +21°C° 0.6 mm 3 mps 748 mmHg 96%
    21:00 +21°C° 0.5 mm 3 mps 748 mmHg 97%
    22:00 +20°C° 0.5 mm 3 mps 748 mmHg 97%
    23:00 +20°C° 0.5 mm 3 mps 748 mmHg 98%
    Show more